| time (UTC) | temp F | wind direction | speed MPH | gust MPH | rain 1hr in | rain 24hr in | rain mn in | humidity % | barometer mb |
| 20260906181736 | 66 | 281 | 3.0 | 7.0 | 0.00 | 0.03 | 0.02 | 93 | 1012.0 |
| 20260906180737 | 66 | 303 | 3.0 | 7.0 | 0.00 | 0.03 | 0.02 | 94 | 1011.7 |
| 20260906180236 | 66 | 309 | 3.0 | 12.0 | 0.00 | 0.03 | 0.02 | 94 | 1011.7 |
| 20260906175236 | 66 | 322 | 3.0 | 8.0 | 0.00 | 0.03 | 0.02 | 94 | 1011.7 |
| 20260906174737 | 66 | 275 | 1.0 | 6.0 | 0.00 | 0.03 | 0.02 | 95 | 1011.7 |
| 20260906174235 | 66 | 296 | 1.0 | 7.0 | 0.00 | 0.03 | 0.02 | 95 | 1011.7 |
| 20260906173236 | 66 | 343 | 2.0 | 7.0 | 0.00 | 0.03 | 0.02 | 95 | 1011.8 |
| 20260906172736 | 66 | 265 | 2.0 | 8.0 | 0.00 | 0.03 | 0.02 | 95 | 1011.8 |
| 20260906172236 | 66 | 224 | 1.0 | 7.0 | 0.00 | 0.03 | 0.02 | 95 | 1011.7 |
| 20260906171736 | 66 | 299 | 3.0 | 7.0 | 0.00 | 0.03 | 0.02 | 95 | 1011.7 |
| 20260906170737 | 66 | 309 | 3.0 | 9.0 | 0.00 | 0.03 | 0.02 | 94 | 1011.7 |
| 20260906170236 | 66 | 262 | 2.0 | 6.0 | 0.00 | 0.03 | 0.02 | 94 | 1011.9 |
| 20260906165737 | 66 | 290 | 2.0 | 7.0 | 0.00 | 0.03 | 0.02 | 94 | 1012.0 |
| 20260906164736 | 66 | 268 | 1.0 | 10.0 | 0.00 | 0.03 | 0.02 | 94 | 1012.0 |
| 20260906163736 | 67 | 268 | 3.0 | 10.0 | 0.00 | 0.03 | 0.02 | 93 | 1012.0 |
| 20260906163237 | 67 | 317 | 1.0 | 9.0 | 0.00 | 0.03 | 0.02 | 93 | 1012.0 |
| 20260906162736 | 67 | 240 | 2.0 | 7.0 | 0.00 | 0.03 | 0.02 | 93 | 1012.1 |
| 20260906162237 | 67 | 297 | 2.0 | 8.0 | 0.00 | 0.03 | 0.02 | 93 | 1012.1 |
| 20260906161737 | 67 | 295 | 4.0 | 8.0 | 0.00 | 0.03 | 0.02 | 92 | 1012.1 |
| 20260906161238 | 67 | 202 | 3.0 | 8.0 | 0.00 | 0.03 | 0.02 | 92 | 1012.1 |
| 20260906160737 | 67 | 287 | 2.0 | 9.0 | 0.00 | 0.03 | 0.02 | 91 | 1012.1 |
| 20260906160237 | 67 | 314 | 3.0 | 6.0 | 0.00 | 0.03 | 0.02 | 91 | 1012.1 |
| 20260906155737 | 68 | 291 | 3.0 | 10.0 | 0.00 | 0.03 | 0.02 | 91 | 1012.2 |
| 20260906155237 | 68 | 316 | 3.0 | 9.0 | 0.00 | 0.03 | 0.02 | 91 | 1012.2 |
| 20260906154737 | 68 | 290 | 3.0 | 10.0 | 0.00 | 0.03 | 0.02 | 91 | 1012.3 |
| 20260906154237 | 68 | 311 | 2.0 | 7.0 | 0.00 | 0.03 | 0.02 | 91 | 1012.4 |
| 20260906153737 | 67 | 292 | 3.0 | 10.0 | 0.00 | 0.03 | 0.02 | 91 | 1012.3 |
| 20260906153237 | 67 | 306 | 2.0 | 7.0 | 0.00 | 0.03 | 0.02 | 91 | 1012.4 |
| 20260906152738 | 67 | 337 | 4.0 | 9.0 | 0.00 | 0.03 | 0.02 | 91 | 1012.4 |
| 20260906152238 | 67 | 300 | 2.0 | 6.0 | 0.00 | 0.03 | 0.02 | 91 | 1012.4 |
| 20260906151238 | 67 | 333 | 2.0 | 12.0 | 0.00 | 0.03 | 0.02 | 91 | 1012.6 |
| 20260906150738 | 67 | 282 | 1.0 | 7.0 | 0.00 | 0.03 | 0.02 | 91 | 1012.6 |
| 20260906150237 | 67 | 306 | 3.0 | 7.0 | 0.00 | 0.03 | 0.02 | 91 | 1012.6 |
| 20260906145738 | 67 | 202 | 3.0 | 6.0 | 0.00 | 0.03 | 0.02 | 91 | 1012.5 |
| 20260906145238 | 67 | 314 | 2.0 | 7.0 | 0.00 | 0.03 | 0.02 | 90 | 1012.8 |
| 20260906144739 | 67 | 347 | 1.0 | 8.0 | 0.00 | 0.03 | 0.02 | 90 | 1012.9 |
| 20260906144238 | 67 | 344 | 2.0 | 8.0 | 0.00 | 0.03 | 0.02 | 90 | 1012.9 |
| 20260906143737 | 68 | 320 | 3.0 | 9.0 | 0.00 | 0.03 | 0.02 | 89 | 1012.9 |
| 20260906143239 | 68 | 11 | 3.0 | 7.0 | 0.00 | 0.03 | 0.02 | 90 | 1012.8 |
| 20260906142739 | 67 | 337 | 4.0 | 16.0 | 0.00 | 0.03 | 0.02 | 90 | 1012.7 |
| 20260906142239 | 67 | 251 | 3.0 | 10.0 | 0.00 | 0.03 | 0.02 | 90 | 1012.7 |
| 20260906141738 | 67 | 53 | 3.0 | 10.0 | 0.00 | 0.03 | 0.02 | 90 | 1012.8 |
| 20260906141239 | 67 | 194 | 5.0 | 10.0 | 0.00 | 0.03 | 0.02 | 90 | 1012.9 |
| 20260906140737 | 66 | 187 | 3.0 | 9.0 | 0.00 | 0.03 | 0.02 | 90 | 1012.9 |
| 20260906140238 | 66 | 257 | 6.0 | 17.0 | 0.00 | 0.03 | 0.02 | 90 | 1012.9 |
| 20260906135738 | 66 | 228 | 3.0 | 8.0 | 0.00 | 0.03 | 0.02 | 90 | 1012.9 |
| 20260906135239 | 66 | 201 | 4.0 | 8.0 | 0.00 | 0.03 | 0.02 | 89 | 1013.2 |
| 20260906134238 | 67 | 309 | 2.0 | 8.0 | 0.00 | 0.03 | 0.02 | 89 | 1013.1 |
| 20260906133738 | 67 | 195 | 3.0 | 10.0 | 0.00 | 0.03 | 0.02 | 89 | 1012.9 |
| 20260906132739 | 67 | 187 | 2.0 | 12.0 | 0.00 | 0.03 | 0.02 | 90 | 1012.8 |
| 20260906132240 | 67 | 158 | 1.0 | 7.0 | 0.00 | 0.03 | 0.02 | 90 | 1012.8 |
| 20260906131738 | 66 | 235 | 3.0 | 14.0 | 0.00 | 0.03 | 0.02 | 90 | 1013.0 |
| 20260906131238 | 66 | 266 | 2.0 | 7.0 | 0.00 | 0.03 | 0.02 | 90 | 1013.1 |
| 20260906130738 | 66 | 187 | 3.0 | 8.0 | 0.00 | 0.03 | 0.02 | 90 | 1013.2 |
| 20260906130239 | 66 | 213 | 1.0 | 12.0 | 0.00 | 0.03 | 0.02 | 90 | 1013.3 |
| 20260906125738 | 66 | 245 | 3.0 | 10.0 | 0.00 | 0.03 | 0.02 | 90 | 1013.4 |
| 20260906125239 | 66 | 195 | 2.0 | 12.0 | 0.00 | 0.03 | 0.02 | 90 | 1013.4 |
| 20260906124739 | 67 | 184 | 3.0 | 9.0 | 0.00 | 0.03 | 0.02 | 90 | 1013.4 |
| 20260906124238 | 67 | 232 | 5.0 | 9.0 | 0.00 | 0.03 | 0.02 | 90 | 1013.4 |
| 20260906123239 | 67 | 316 | 2.0 | 6.0 | 0.00 | 0.03 | 0.02 | 90 | 1013.4 |
| 20260906122239 | 67 | 192 | 4.0 | 12.0 | 0.00 | 0.03 | 0.02 | 90 | 1013.3 |
| 20260906121740 | 66 | 185 | 6.0 | 15.0 | 0.00 | 0.03 | 0.02 | 90 | 1013.4 |
| 20260906120239 | 66 | 196 | 6.0 | 16.0 | 0.00 | 0.03 | 0.02 | 91 | 1013.5 |
| 20260906115239 | 66 | 161 | 6.0 | 16.0 | 0.00 | 0.03 | 0.02 | 91 | 1013.7 |
| 20260906114739 | 66 | 167 | 5.0 | 16.0 | 0.00 | 0.03 | 0.02 | 90 | 1013.8 |
| 20260906114241 | 66 | 180 | 7.0 | 12.0 | 0.00 | 0.03 | 0.02 | 90 | 1013.9 |
| 20260906113747 | 66 | 174 | 7.0 | 16.0 | 0.00 | 0.03 | 0.02 | 90 | 1013.9 |
| 20260906113253 | 67 | 198 | 5.0 | 9.0 | 0.00 | 0.03 | 0.02 | 89 | 1014.0 |
| 20260906112249 | 66 | 192 | 7.0 | 14.0 | 0.00 | 0.03 | 0.02 | 89 | 1014.1 |
| 20260906111740 | 67 | 155 | 7.0 | 16.0 | 0.00 | 0.03 | 0.02 | 89 | 1014.0 |
| 20260906111239 | 67 | 165 | 10.0 | 18.0 | 0.00 | 0.03 | 0.02 | 89 | 1014.0 |
| 20260906110739 | 66 | 188 | 9.0 | 16.0 | 0.00 | 0.03 | 0.02 | 89 | 1014.1 |
| 20260906105239 | 66 | 201 | 9.0 | 18.0 | 0.00 | 0.03 | 0.02 | 88 | 1014.2 |
| 20260906104739 | 66 | 191 | 8.0 | 17.0 | 0.00 | 0.03 | 0.02 | 88 | 1014.2 |
| 20260906104239 | 66 | 206 | 5.0 | 15.0 | 0.00 | 0.03 | 0.02 | 89 | 1014.3 |
| 20260906103741 | 66 | 170 | 9.0 | 18.0 | 0.00 | 0.03 | 0.02 | 89 | 1014.2 |
| 20260906103239 | 66 | 186 | 10.0 | 18.0 | 0.00 | 0.03 | 0.02 | 89 | 1014.3 |
| 20260906102240 | 65 | 169 | 9.0 | 13.0 | 0.00 | 0.03 | 0.02 | 90 | 1014.4 |
| 20260906101741 | 65 | 165 | 7.0 | 15.0 | 0.00 | 0.03 | 0.02 | 90 | 1014.5 |
| 20260906101240 | 65 | 185 | 8.0 | 15.0 | 0.00 | 0.03 | 0.02 | 90 | 1014.6 |
| 20260906100741 | 65 | 168 | 7.0 | 14.0 | 0.00 | 0.03 | 0.02 | 89 | 1014.8 |
| 20260906100239 | 65 | 182 | 8.0 | 14.0 | 0.00 | 0.03 | 0.02 | 89 | 1014.8 |
| 20260906095741 | 65 | 188 | 7.0 | 17.0 | 0.00 | 0.03 | 0.02 | 89 | 1014.9 |
| 20260906095241 | 65 | 175 | 6.0 | 17.0 | 0.00 | 0.03 | 0.02 | 89 | 1015.0 |
| 20260906093241 | 66 | 179 | 9.0 | 17.0 | 0.00 | 0.03 | 0.02 | 87 | 1015.1 |
| 20260906092240 | 66 | 162 | 7.0 | 15.0 | 0.00 | 0.03 | 0.02 | 87 | 1015.1 |
| 20260906091739 | 66 | 166 | 7.0 | 13.0 | 0.00 | 0.03 | 0.02 | 88 | 1015.1 |
| 20260906090740 | 65 | 156 | 10.0 | 16.0 | 0.00 | 0.03 | 0.02 | 87 | 1015.0 |
| 20260906090241 | 65 | 142 | 9.0 | 14.0 | 0.00 | 0.03 | 0.02 | 87 | 1015.0 |
| 20260906085741 | 65 | 150 | 7.0 | 10.0 | 0.00 | 0.03 | 0.02 | 88 | 1015.1 |
| 20260906084740 | 65 | 174 | 7.0 | 15.0 | 0.00 | 0.03 | 0.02 | 89 | 1015.3 |
| 20260906084241 | 65 | 150 | 7.0 | 14.0 | 0.00 | 0.03 | 0.02 | 89 | 1015.3 |
| 20260906083740 | 65 | 179 | 8.0 | 15.0 | 0.00 | 0.03 | 0.02 | 89 | 1015.4 |
| 20260906083241 | 65 | 178 | 8.0 | 16.0 | 0.00 | 0.03 | 0.02 | 88 | 1015.6 |
| 20260906082740 | 65 | 169 | 8.0 | 17.0 | 0.00 | 0.03 | 0.02 | 88 | 1015.5 |
| 20260906082242 | 65 | 177 | 8.0 | 15.0 | 0.00 | 0.03 | 0.02 | 88 | 1015.5 |
| 20260906081742 | 65 | 176 | 6.0 | 15.0 | 0.00 | 0.03 | 0.02 | 89 | 1015.6 |
| 20260906081241 | 65 | 149 | 11.0 | 17.0 | 0.00 | 0.03 | 0.02 | 89 | 1015.7 |
| 20260906080742 | 65 | 137 | 7.0 | 14.0 | 0.00 | 0.03 | 0.02 | 89 | 1015.8 |
| 20260906080240 | 65 | 174 | 6.0 | 14.0 | 0.00 | 0.03 | 0.02 | 90 | 1015.9 |
| 20260906075741 | 64 | 162 | 7.0 | 13.0 | 0.00 | 0.03 | 0.02 | 90 | 1015.9 |
| 20260906074741 | 64 | 166 | 8.0 | 14.0 | 0.00 | 0.03 | 0.02 | 90 | 1016.0 |
| 20260906073741 | 64 | 183 | 9.0 | 16.0 | 0.00 | 0.03 | 0.02 | 91 | 1015.9 |
| 20260906073241 | 63 | 172 | 6.0 | 16.0 | 0.00 | 0.03 | 0.02 | 92 | 1015.8 |
| 20260906071241 | 63 | 169 | 5.0 | 14.0 | 0.00 | 0.03 | 0.02 | 92 | 1016.2 |
| 20260906070742 | 63 | 188 | 7.0 | 13.0 | 0.00 | 0.03 | 0.02 | 92 | 1016.3 |
| 20260906070243 | 63 | 167 | 7.0 | 13.0 | 0.00 | 0.03 | 0.02 | 92 | 1016.3 |
| 20260906065741 | 62 | 176 | 7.0 | 14.0 | 0.00 | 0.03 | 0.02 | 93 | 1016.3 |
| 20260906065242 | 62 | 177 | 6.0 | 12.0 | 0.00 | 0.03 | 0.02 | 93 | 1016.3 |
| 20260906064741 | 62 | 153 | 6.0 | 13.0 | 0.00 | 0.03 | 0.02 | 93 | 1016.3 |
| 20260906064241 | 62 | 171 | 7.0 | 12.0 | 0.00 | 0.03 | 0.02 | 93 | 1016.3 |
| 20260906063742 | 62 | 172 | 7.0 | 12.0 | 0.00 | 0.03 | 0.02 | 94 | 1016.2 |
| 20260906063241 | 62 | 167 | 7.0 | 10.0 | 0.00 | 0.03 | 0.02 | 94 | 1016.2 |
| 20260906062742 | 62 | 168 | 9.0 | 13.0 | 0.00 | 0.03 | 0.02 | 94 | 1016.3 |
| 20260906062242 | 62 | 162 | 7.0 | 13.0 | 0.00 | 0.03 | 0.02 | 94 | 1016.4 |
| 20260906061742 | 62 | 182 | 5.0 | 14.0 | 0.00 | 0.03 | 0.02 | 94 | 1016.5 |
| 20260906061241 | 62 | 163 | 9.0 | 16.0 | 0.00 | 0.03 | 0.02 | 94 | 1016.5 |
| 20260906060743 | 62 | 172 | 7.0 | 16.0 | 0.00 | 0.03 | 0.02 | 94 | 1016.4 |
| 20260906060241 | 62 | 152 | 7.0 | 14.0 | 0.00 | 0.03 | 0.02 | 94 | 1016.5 |
| 20260906055742 | 62 | 173 | 9.0 | 16.0 | 0.00 | 0.03 | 0.02 | 94 | 1016.6 |
| 20260906054743 | 62 | 178 | 6.0 | 12.0 | 0.00 | 0.03 | 0.02 | 94 | 1016.8 |
| 20260906053744 | 62 | 152 | 6.0 | 16.0 | 0.00 | 0.03 | 0.02 | 93 | 1016.8 |
| 20260906052742 | 62 | 173 | 6.0 | 13.0 | 0.00 | 0.03 | 0.02 | 93 | 1016.9 |
| 20260906052242 | 62 | 167 | 5.0 | 10.0 | 0.00 | 0.03 | 0.02 | 93 | 1017.0 |
| 20260906051244 | 62 | 173 | 4.0 | 12.0 | 0.00 | 0.03 | 0.02 | 93 | 1017.0 |
| 20260906050741 | 62 | 170 | 6.0 | 12.0 | 0.00 | 0.03 | 0.02 | 93 | 1017.1 |
| 20260906050242 | 62 | 161 | 7.0 | 13.0 | 0.00 | 0.03 | 0.02 | 93 | 1017.1 |
| 20260906045743 | 62 | 167 | 5.0 | 14.0 | 0.00 | 0.03 | 0.02 | 94 | 1017.2 |
| 20260906045242 | 62 | 179 | 6.0 | 13.0 | 0.00 | 0.03 | 0.02 | 94 | 1017.1 |
| 20260906044242 | 62 | 157 | 7.0 | 12.0 | 0.00 | 0.03 | 0.02 | 95 | 1017.2 |
| 20260906043742 | 62 | 164 | 6.0 | 10.0 | 0.00 | 0.03 | 0.02 | 95 | 1017.2 |
| 20260906043243 | 62 | 153 | 5.0 | 13.0 | 0.00 | 0.03 | 0.02 | 95 | 1017.2 |
| 20260906041743 | 62 | 156 | 7.0 | 10.0 | 0.00 | 0.03 | 0.02 | 96 | 1017.2 |
| 20260906041242 | 62 | 178 | 6.0 | 12.0 | 0.00 | 0.03 | 0.02 | 96 | 1017.2 |
| 20260906040743 | 63 | 178 | 5.0 | 12.0 | 0.00 | 0.03 | 0.02 | 96 | 1017.2 |
| 20260906040242 | 63 | 135 | 7.0 | 16.0 | 0.00 | 0.03 | 0.02 | 96 | 1017.3 |
| 20260906035742 | 63 | 159 | 6.0 | 10.0 | 0.00 | 0.03 | 0.02 | 96 | 1017.3 |
| 20260906034243 | 63 | 172 | 7.0 | 14.0 | 0.00 | 0.03 | 0.02 | 96 | 1017.5 |
| 20260906033743 | 63 | 177 | 4.0 | 10.0 | 0.00 | 0.03 | 0.02 | 96 | 1017.6 |
| 20260906033243 | 63 | 165 | 6.0 | 9.0 | 0.00 | 0.03 | 0.02 | 96 | 1017.6 |
| 20260906032744 | 63 | 167 | 5.0 | 9.0 | 0.00 | 0.03 | 0.02 | 96 | 1017.6 |
| 20260906032243 | 63 | 146 | 5.0 | 8.0 | 0.00 | 0.03 | 0.02 | 96 | 1017.7 |
| 20260906031244 | 63 | 171 | 6.0 | 9.0 | 0.00 | 0.03 | 0.02 | 96 | 1017.8 |
| 20260906030744 | 63 | 180 | 4.0 | 8.0 | 0.00 | 0.03 | 0.02 | 96 | 1017.9 |
| 20260906030243 | 63 | 175 | 6.0 | 9.0 | 0.00 | 0.03 | 0.02 | 97 | 1017.9 |
| 20260906025244 | 63 | 163 | 5.0 | 9.0 | 0.00 | 0.03 | 0.02 | 97 | 1018.0 |
| 20260906024744 | 63 | 177 | 5.0 | 14.0 | 0.00 | 0.03 | 0.02 | 97 | 1018.0 |
| 20260906024244 | 63 | 157 | 7.0 | 13.0 | 0.00 | 0.03 | 0.02 | 97 | 1018.1 |
| 20260906023243 | 63 | 166 | 8.0 | 12.0 | 0.00 | 0.03 | 0.02 | 97 | 1018.2 |
| 20260906022243 | 63 | 165 | 7.0 | 14.0 | 0.00 | 0.03 | 0.02 | 97 | 1018.2 |
| 20260906021744 | 63 | 180 | 7.0 | 13.0 | 0.00 | 0.03 | 0.02 | 97 | 1018.3 |
| 20260906021245 | 63 | 156 | 6.0 | 12.0 | 0.00 | 0.03 | 0.02 | 97 | 1018.4 |
| 20260906020745 | 63 | 177 | 6.0 | 13.0 | 0.00 | 0.03 | 0.02 | 97 | 1018.5 |
| 20260906020244 | 63 | 179 | 2.0 | 12.0 | 0.00 | 0.03 | 0.02 | 97 | 1018.6 |
| 20260906015744 | 63 | 173 | 5.0 | 10.0 | 0.00 | 0.03 | 0.02 | 97 | 1018.7 |
| 20260906015245 | 63 | 172 | 3.0 | 10.0 | 0.00 | 0.03 | 0.02 | 97 | 1018.7 |
| 20260906014743 | 63 | 176 | 5.0 | 12.0 | 0.01 | 0.03 | 0.02 | 97 | 1018.7 |
| 20260906014244 | 63 | 181 | 4.0 | 13.0 | 0.01 | 0.03 | 0.02 | 96 | 1018.7 |
| 20260906013745 | 63 | 185 | 4.0 | 10.0 | 0.01 | 0.03 | 0.02 | 97 | 1018.9 |
| 20260906013244 | 63 | 167 | 5.0 | 10.0 | 0.01 | 0.03 | 0.02 | 96 | 1019.0 |
| 20260906012743 | 63 | 194 | 3.0 | 7.0 | 0.01 | 0.03 | 0.02 | 96 | 1019.1 |
| 20260906012244 | 63 | 179 | 3.0 | 9.0 | 0.01 | 0.03 | 0.02 | 97 | 1019.1 |
| 20260906011744 | 63 | 154 | 5.0 | 12.0 | 0.01 | 0.03 | 0.02 | 97 | 1019.0 |
| 20260906010744 | 62 | 182 | 5.0 | 9.0 | 0.01 | 0.03 | 0.02 | 96 | 1019.1 |
| 20260906010244 | 62 | 165 | 5.0 | 9.0 | 0.02 | 0.03 | 0.02 | 96 | 1019.3 |
| 20260906005744 | 62 | 158 | 5.0 | 9.0 | 0.02 | 0.03 | 0.02 | 96 | 1019.3 |
| 20260906005245 | 62 | 174 | 6.0 | 12.0 | 0.02 | 0.03 | 0.02 | 96 | 1019.4 |
| 20260906004744 | 62 | 173 | 5.0 | 10.0 | 0.01 | 0.02 | 0.02 | 96 | 1019.5 |
| 20260906004245 | 62 | 178 | 2.0 | 10.0 | 0.01 | 0.02 | 0.02 | 97 | 1019.6 |
| 20260906003244 | 62 | 162 | 6.0 | 10.0 | 0.01 | 0.02 | 0.02 | 97 | 1019.8 |
| 20260906002745 | 62 | 170 | 3.0 | 8.0 | 0.01 | 0.02 | 0.02 | 97 | 1019.9 |
| 20260906002244 | 62 | 182 | 4.0 | 13.0 | 0.01 | 0.02 | 0.02 | 97 | 1020.0 |
| 20260906001744 | 62 | 174 | 4.0 | 10.0 | 0.01 | 0.02 | 0.02 | 97 | 1020.1 |
| 20260906001245 | 62 | 180 | 5.0 | 10.0 | 0.01 | 0.02 | 0.02 | 97 | 1020.2 |
| 20260906000745 | 62 | 189 | 4.0 | 8.0 | 0.01 | 0.02 | 0.02 | 97 | 1020.3 |
| 20260906000244 | 62 | 169 | 3.0 | 9.0 | 0.01 | 0.02 | 0.01 | 97 | 1020.4 |
| 20260905235245 | 62 | 191 | 3.0 | 6.0 | 0.00 | 0.02 | 0.01 | 97 | 1020.4 |
| 20260905234745 | 62 | 174 | 3.0 | 7.0 | 0.00 | 0.02 | 0.01 | 97 | 1020.4 |
| 20260905234244 | 62 | 183 | 5.0 | 13.0 | 0.00 | 0.02 | 0.01 | 96 | 1020.3 |
| 20260905233746 | 62 | 186 | 3.0 | 9.0 | 0.00 | 0.02 | 0.01 | 96 | 1020.4 |
| 20260905233245 | 62 | 183 | 3.0 | 8.0 | 0.00 | 0.02 | 0.01 | 96 | 1020.4 |
| 20260905232745 | 62 | 178 | 3.0 | 8.0 | 0.00 | 0.02 | 0.01 | 96 | 1020.6 |
| 20260905232245 | 62 | 193 | 6.0 | 12.0 | 0.00 | 0.02 | 0.01 | 96 | 1020.6 |
| 20260905231246 | 62 | 174 | 3.0 | 7.0 | 0.01 | 0.02 | 0.01 | 96 | 1020.7 |
| 20260905230246 | 62 | 159 | 3.0 | 6.0 | 0.00 | 0.01 | 0.00 | 96 | 1020.8 |
| 20260905225246 | 62 | 163 | 1.0 | 5.0 | 0.01 | 0.01 | 0.01 | 96 | 1020.8 |
| 20260905224746 | 62 | 163 | 3.0 | 6.0 | 0.01 | 0.01 | 0.01 | 96 | 1020.9 |
| 20260905224245 | 62 | 162 | 3.0 | 8.0 | 0.01 | 0.01 | 0.01 | 96 | 1020.9 |
| 20260905223745 | 62 | 164 | 2.0 | 7.0 | 0.01 | 0.01 | 0.01 | 96 | 1020.9 |
| 20260905223245 | 62 | 140 | 1.0 | 5.0 | 0.01 | 0.01 | 0.01 | 96 | 1020.9 |
| 20260905222747 | 62 | 144 | 2.0 | 5.0 | 0.01 | 0.01 | 0.01 | 96 | 1020.9 |
| 20260905222245 | 62 | 145 | 2.0 | 6.0 | 0.01 | 0.01 | 0.01 | 96 | 1021.0 |
| 20260905221746 | 62 | 185 | 2.0 | 6.0 | 0.01 | 0.01 | 0.01 | 96 | 1021.0 |
| 20260905221246 | 62 | 160 | 3.0 | 10.0 | 0.00 | 0.00 | 0.00 | 96 | 1021.1 |
| 20260905220746 | 62 | 167 | 2.0 | 6.0 | 0.00 | 0.00 | 0.00 | 96 | 1021.1 |
| 20260905220245 | 62 | 142 | 4.0 | 10.0 | 0.00 | 0.00 | 0.00 | 96 | 1021.2 |
| 20260905215747 | 62 | 174 | 6.0 | 13.0 | 0.00 | 0.00 | 0.00 | 96 | 1021.2 |
| 20260905215246 | 62 | 180 | 5.0 | 9.0 | 0.00 | 0.00 | 0.00 | 96 | 1021.2 |
| 20260905214745 | 62 | 161 | 4.0 | 8.0 | 0.00 | 0.00 | 0.00 | 96 | 1021.2 |
| 20260905213745 | 62 | 168 | 4.0 | 7.0 | 0.00 | 0.00 | 0.00 | 95 | 1021.1 |
| 20260905213246 | 62 | 172 | 4.0 | 7.0 | 0.00 | 0.00 | 0.00 | 95 | 1021.3 |
| 20260905212246 | 62 | 174 | 4.0 | 8.0 | 0.00 | 0.00 | 0.00 | 95 | 1021.3 |
| 20260905211745 | 62 | 141 | 3.0 | 6.0 | 0.00 | 0.00 | 0.00 | 95 | 1021.4 |
| 20260905211246 | 62 | 144 | 2.0 | 5.0 | 0.00 | 0.00 | 0.00 | 95 | 1021.4 |
| 20260905210746 | 62 | 158 | 2.0 | 6.0 | 0.00 | 0.00 | 0.00 | 95 | 1021.5 |
| 20260905210246 | 62 | 161 | 2.0 | 6.0 | 0.00 | 0.00 | 0.00 | 95 | 1021.6 |
| 20260905205746 | 62 | 165 | 4.0 | 7.0 | 0.00 | 0.00 | 0.00 | 95 | 1021.6 |
| 20260905204246 | 62 | 179 | 5.0 | 7.0 | 0.00 | 0.00 | 0.00 | 95 | 1021.6 |
| 20260905203746 | 62 | 169 | 5.0 | 9.0 | 0.00 | 0.00 | 0.00 | 95 | 1021.5 |
| 20260905203247 | 62 | 179 | 5.0 | 8.0 | 0.00 | 0.00 | 0.00 | 94 | 1021.6 |
| 20260905202746 | 62 | 178 | 3.0 | 6.0 | 0.00 | 0.00 | 0.00 | 94 | 1021.6 |
| 20260905202247 | 62 | 159 | 2.0 | 3.0 | 0.00 | 0.00 | 0.00 | 94 | 1021.7 |
| 20260905201748 | 62 | 172 | 1.0 | 5.0 | 0.00 | 0.00 | 0.00 | 94 | 1021.7 |
| 20260905200246 | 62 | 180 | 2.0 | 6.0 | 0.00 | 0.00 | 0.00 | 92 | 1021.7 |
| 20260905195747 | 62 | 159 | 3.0 | 6.0 | 0.00 | 0.00 | 0.00 | 91 | 1021.6 |
| 20260905195247 | 63 | 200 | 1.0 | 6.0 | 0.00 | 0.00 | 0.00 | 90 | 1021.7 |
| 20260905194746 | 63 | 229 | 1.0 | 5.0 | 0.00 | 0.00 | 0.00 | 89 | 1021.7 |
| 20260905194247 | 63 | 336 | 1.0 | 7.0 | 0.00 | 0.00 | 0.00 | 88 | 1021.7 |
| 20260905193247 | 63 | 187 | 3.0 | 8.0 | 0.00 | 0.00 | 0.00 | 86 | 1021.6 |
| 20260905192747 | 63 | 180 | 2.0 | 6.0 | 0.00 | 0.00 | 0.00 | 86 | 1021.5 |
| 20260905192247 | 63 | 174 | 2.0 | 6.0 | 0.00 | 0.00 | 0.00 | 86 | 1021.6 |
| 20260905191246 | 63 | 184 | 3.0 | 6.0 | 0.00 | 0.00 | 0.00 | 86 | 1021.5 |
| 20260905190248 | 63 | 158 | 2.0 | 6.0 | 0.00 | 0.00 | 0.00 | 86 | 1021.6 |
| 20260905185746 | 63 | 171 | 3.0 | 6.0 | 0.00 | 0.00 | 0.00 | 86 | 1021.6 |
| 20260905185247 | 63 | 174 | 2.0 | 5.0 | 0.00 | 0.00 | 0.00 | 86 | 1021.7 |
| 20260905184747 | 63 | 168 | 5.0 | 8.0 | 0.00 | 0.00 | 0.00 | 86 | 1021.7 |
| 20260905184247 | 63 | 178 | 3.0 | 8.0 | 0.00 | 0.00 | 0.00 | 86 | 1021.6 |
| 20260905183247 | 63 | 185 | 5.0 | 7.0 | 0.00 | 0.00 | 0.00 | 86 | 1021.7 |
| 20260905182748 | 63 | 170 | 5.0 | 8.0 | 0.00 | 0.00 | 0.00 | 86 | 1021.6 |